Regional Weather Roundup
Issued by NWS

Home | Current Version | Previous Version | Graphics & Text | Print | Product List | Glossary On
Versions: 1 2 3 4 5 6 7 8 9 10 11 12 13 14 15 16 17 18 19 20 21 22 23 24 25 26 27 28 29 30 31 32 33 34 35 36 37 38 39 40 41 42 43 44 45 46 47 48 49 50
000
ASUS43 KFSD 311710
RWRSD

WEATHER ROUNDUP FOR SOUTH DAKOTA
NATIONAL WEATHER SERVICE SIOUX FALLS SD
1200 PM CDT TUE MAR 31 2020

NOTE: "FAIR" INDICATES FEW OR NO CLOUDS BELOW 12,000 FEET WITH NO
SIGNIFICANT WEATHER AND/OR OBSTRUCTIONS TO VISIBILITY.


SDZ001>005-009-010-012>017-311800-
NORTHWEST AND NORTH CENTRAL SOUTH DAKOTA

CITY           SKY/WX    TMP DP  RH WIND       PRES   REMARKS
BUFFALO          N/A     52  35  52 VRB5      29.75F
FAITH            N/A     44  43  96 SE5       29.81F
MOBRIDGE       FAIR      57  41  55 SE21      29.84F
$$

SDZ012>016-024>037-041>051-057-063-072>074-311800-
SOUTHWEST AND SOUTH CENTRAL SOUTH DAKOTA

CITY           SKY/WX    TMP DP  RH WIND       PRES   REMARKS
RAPID CTY ARPT FAIR      63  24  22 W12       29.78F
PIERRE         FAIR      56  45  66 SE26G32   29.83F
CUSTER         FAIR      49  24  37 W16G29    29.85R
ELLSWORTH AFB  FAIR      59  32  36 NE10      29.78F
PHILIP         FAIR      56  37  49 S9        29.79F
PINE RIDGE     FAIR      61  28  28 W14G29    29.85F
SPEARFISH      FAIR      59  21  23 W10G21    29.80S
WINNER         FAIR      55  45  68 S20G29    29.87F
$$

SDZ004>011-016>023-039-040-311800-
NORTHEAST SOUTH DAKOTA

CITY           SKY/WX    TMP DP  RH WIND       PRES   REMARKS
ABERDEEN       CLOUDY    47  38  71 SE16      29.97F
WATERTOWN      CLOUDY    45  33  63 SE10      30.01F
BROOKINGS      CLOUDY    42  33  70 SE13      30.03F
SISSETON         N/A     40  32  73 SE13      30.04F
$$

SDZ017-020-022-023-036>040-048>070-311800-
SOUTHEAST SOUTH DAKOTA

CITY           SKY/WX    TMP DP  RH WIND       PRES   REMARKS
SIOUX FALLS    LGT RAIN  46  34  62 SE8       30.04R
HURON          CLOUDY    49  37  63 SE17G26   29.96F
CHAMBERLAIN    CLOUDY    53  49  88 S17       29.90F
MADISON        PTSUNNY   41  37  87 SE12      30.02F
MITCHELL       CLOUDY    51  37  58 SE21G28   29.97F
YANKTON        FAIR      53  36  52 SE12      30.00F
$$

ABBREVIATIONS USED IN REMARKS
   TC - TEMPERATURE IN CELSIUS
  WCI - WIND CHILL INDEX
   HX - HEAT INDEX
  VSB - VISIBILITY




USA.gov is the U.S. government's official web portal to all federal, state and local government web resources and services.